📊 Raw Sensor Data
Showing records 47776 to 47800 of 85,091 total
| ID | Distance (ft) | Battery V | Battery A | Int Temp (°F) | Int Humid (%) | Ext Temp (°F) | Solar V | RSSI | SNR | Time Stamp |
|---|---|---|---|---|---|---|---|---|---|---|
| 37328 | -- | 3.93 | 0 | 69 | 38 | 67 | 5.10 | -76 | 8 | 04/09/2025 10:45 AM |
| 37327 | 15.7 | 3.84 | 0 | 68 | 38 | 67 | 5.10 | -76 | 8 | 04/09/2025 10:30 AM |
| 37326 | 15.7 | 3.84 | 5 | 66 | 38 | 65 | 5.10 | -77 | 8 | 04/09/2025 10:15 AM |
| 37325 | 15.7 | 4.05 | 7 | 65 | 38 | 65 | 5.10 | -76 | 8 | 04/09/2025 10:00 AM |
| 37324 | 15.7 | 3.84 | 0 | 63 | 38 | 63 | 5.10 | -77 | 8 | 04/09/2025 09:45 AM |
| 37323 | 15.6 | 4.08 | 6 | 62 | 38 | 63 | 5.10 | -75 | 8 | 04/09/2025 09:30 AM |
| 37322 | 15.7 | 3.84 | 0 | 60 | 38 | 61 | 5.10 | -76 | 8 | 04/09/2025 09:15 AM |
| 37321 | 15.7 | 3.88 | 9 | 58 | 38 | 60 | 5.10 | -77 | 7 | 04/09/2025 09:00 AM |
| 37320 | 15.6 | 3.85 | 0 | 56 | 38 | 58 | 5.10 | -77 | 8 | 04/09/2025 08:45 AM |
| 37319 | 15.6 | 3.85 | 8 | 54 | 38 | 56 | 5.10 | -76 | 7 | 04/09/2025 08:30 AM |
| 37318 | 15.6 | 3.85 | 10 | 52 | 38 | 56 | 5.10 | -78 | 8 | 04/09/2025 08:15 AM |
| 37317 | 15.6 | 3.85 | 0 | 51 | 38 | 56 | 5.10 | -78 | 7 | 04/09/2025 08:00 AM |
| 37316 | 15.6 | 3.98 | 0 | 49 | 39 | 53 | 5.10 | -79 | 8 | 04/09/2025 07:45 AM |
| 37315 | 15.6 | 3.94 | 18 | 47 | 40 | 52 | 4.50 | -78 | 7 | 04/09/2025 07:30 AM |
| 37314 | 15.5 | 3.89 | 0 | 45 | 41 | 51 | 4.50 | -79 | 7 | 04/09/2025 07:15 AM |
| 37313 | 15.5 | 3.85 | 0 | 44 | 41 | 47 | 4.50 | -79 | 8 | 04/09/2025 07:00 AM |
| 37312 | 15.5 | 3.82 | -9 | 44 | 41 | 46 | 4.50 | -78 | 8 | 04/09/2025 06:45 AM |
| 37311 | 15.5 | 3.76 | -5 | 44 | 41 | 46 | 1.20 | -78 | 8 | 04/09/2025 06:30 AM |
| 37310 | 15.4 | 3.84 | -5 | 45 | 40 | 47 | 0.00 | -79 | 8 | 04/09/2025 06:15 AM |
| 37309 | 15.4 | 3.76 | -5 | 45 | 40 | 47 | 0.00 | -79 | 7 | 04/09/2025 06:00 AM |
| 37308 | 15.5 | 3.84 | -5 | 45 | 41 | 47 | 0.00 | -78 | 8 | 04/09/2025 05:45 AM |
| 37307 | 15.4 | 3.75 | -5 | 45 | 41 | 47 | 0.00 | -78 | 8 | 04/09/2025 05:30 AM |
| 37306 | 15.5 | 3.84 | -5 | 45 | 41 | 47 | 0.00 | -79 | 9 | 04/09/2025 05:15 AM |
| 37305 | 15.4 | 3.75 | -5 | 46 | 41 | 48 | 0.10 | -78 | 8 | 04/09/2025 05:00 AM |
| 37304 | 15.4 | 3.84 | -5 | 46 | 41 | 48 | 0.00 | -79 | 8 | 04/09/2025 04:45 AM |